| time (UTC) | temp C | wind direction | speed KPH | gust KPH | rain 1hr cm | rain 24hr cm | rain mn cm | humidity % | barometer mb |
| 20260503210047 | 15 | 216 | 8.0 | 27.4 | 0.00 | 0.00 | 0.00 | 41 | 1008.7 |
| 20260503204550 | 16 | 265 | 12.9 | 24.1 | 0.00 | 0.00 | 0.00 | 42 | 1008.8 |
| 20260503203053 | 16 | 276 | 14.5 | 27.4 | 0.00 | 0.00 | 0.00 | 40 | 1008.9 |
| 20260503201552 | 16 | 228 | 12.9 | 32.2 | 0.00 | 0.00 | 0.00 | 39 | 1009.0 |
| 20260503200052 | 16 | 249 | 12.9 | 27.4 | 0.00 | 0.00 | 0.00 | 40 | 1009.1 |
| 20260503194548 | 16 | 267 | 14.5 | 25.7 | 0.00 | 0.00 | 0.00 | 39 | 1009.4 |
| 20260503193049 | 16 | 254 | 11.3 | 32.2 | 0.00 | 0.00 | 0.00 | 39 | 1009.6 |
| 20260503191550 | 16 | 271 | 16.1 | 33.8 | 0.00 | 0.00 | 0.00 | 38 | 1009.8 |
| 20260503190051 | 16 | 237 | 17.7 | 29.0 | 0.00 | 0.00 | 0.00 | 36 | 1009.9 |
| 20260503184600 | 15 | 239 | 12.9 | 32.2 | 0.00 | 0.00 | 0.00 | 38 | 1010.0 |
| 20260503183059 | 16 | 278 | 11.3 | 24.1 | 0.00 | 0.00 | 0.00 | 41 | 1010.2 |
| 20260503181606 | 15 | 355 | 12.9 | 33.8 | 0.00 | 0.00 | 0.00 | 39 | 1010.5 |
| 20260503180047 | 14 | 253 | 8.0 | 29.0 | 0.00 | 0.00 | 0.00 | 42 | 1010.7 |
| 20260503174546 | 14 | 275 | 14.5 | 30.6 | 0.00 | 0.00 | 0.00 | 41 | 1010.8 |
| 20260503173058 | 15 | 250 | 11.3 | 27.4 | 0.00 | 0.00 | 0.00 | 40 | 1011.1 |
| 20260503171547 | 14 | 237 | 9.7 | 25.7 | 0.00 | 0.00 | 0.00 | 44 | 1011.2 |
| 20260503081610 | 1 | 240 | 0.0 | 3.2 | 0.00 | 0.00 | 0.00 | 66 | 1013.8 |
| 20260503080110 | 1 | 254 | 0.0 | 3.2 | 0.00 | 0.00 | 0.00 | 67 | 1013.8 |
| 20260503071551 | 1 | 0 | 0.0 | 4.8 | 0.00 | 0.00 | 0.00 | 69 | 1014.0 |
| 20260503054555 | 2 | 0 | 0.0 | 3.2 | 0.00 | 0.00 | 0.00 | 65 | 1014.6 |
| 20260503053048 | 2 | 259 | 0.0 | 3.2 | 0.00 | 0.00 | 0.00 | 66 | 1014.7 |
| 20260503051553 | 2 | 229 | 0.0 | 4.8 | 0.00 | 0.00 | 0.00 | 66 | 1014.8 |
| 20260503050053 | 2 | 0 | 0.0 | 4.8 | 0.00 | 0.00 | 0.00 | 66 | 1014.9 |
| 20260503044550 | 2 | 251 | 1.6 | 4.8 | 0.00 | 0.00 | 0.00 | 67 | 1014.9 |
| 20260503043045 | 2 | 234 | 0.0 | 3.2 | 0.00 | 0.00 | 0.00 | 69 | 1014.9 |
| 20260503041550 | 1 | 0 | 0.0 | 1.6 | 0.00 | 0.00 | 0.00 | 70 | 1014.9 |
| 20260503040049 | 1 | 0 | 0.0 | 1.6 | 0.00 | 0.00 | 0.00 | 72 | 1015.0 |
| 20260503034550 | 1 | 0 | 0.0 | 0.0 | 0.00 | 0.00 | 0.00 | 72 | 1015.1 |
| 20260503033103 | 1 | 211 | 0.0 | 0.0 | 0.00 | 0.00 | 0.00 | 72 | 1015.1 |
| 20260503031554 | 1 | 0 | 0.0 | 1.6 | 0.00 | 0.00 | 0.00 | 73 | 1015.3 |
| 20260503030052 | 1 | 0 | 0.0 | 1.6 | 0.00 | 0.00 | 0.00 | 73 | 1015.4 |
| 20260503024607 | 1 | 0 | 0.0 | 0.0 | 0.00 | 0.00 | 0.00 | 72 | 1015.4 |
| 20260503023046 | 1 | 0 | 0.0 | 0.0 | 0.00 | 0.00 | 0.00 | 72 | 1015.5 |
| 20260503021544 | 1 | 0 | 0.0 | 0.0 | 0.00 | 0.00 | 0.00 | 71 | 1015.6 |
| 20260503020048 | 1 | 0 | 0.0 | 0.0 | 0.00 | 0.00 | 0.00 | 70 | 1015.5 |
| 20260503014543 | 2 | 0 | 0.0 | 0.0 | 0.00 | 0.00 | 0.00 | 67 | 1015.5 |
| 20260503013046 | 2 | 0 | 0.0 | 0.0 | 0.00 | 0.00 | 0.00 | 64 | 1015.3 |
| 20260503011553 | 3 | 0 | 0.0 | 0.0 | 0.00 | 0.00 | 0.00 | 63 | 1015.2 |
| 20260503010048 | 4 | 0 | 0.0 | 0.0 | 0.00 | 0.00 | 0.00 | 58 | 1015.2 |
| 20260503004611 | 5 | 0 | 0.0 | 1.6 | 0.00 | 0.00 | 0.00 | 55 | 1015.2 |
| 20260503003045 | 6 | 0 | 0.0 | 1.6 | 0.00 | 0.00 | 0.00 | 52 | 1015.2 |
| 20260503001550 | 7 | 0 | 0.0 | 1.6 | 0.00 | 0.00 | 0.00 | 51 | 1015.1 |
| 20260503000105 | 7 | 0 | 0.0 | 4.8 | 0.00 | 0.00 | 0.00 | 50 | 1015.2 |
| 20260502234606 | 7 | 247 | 1.6 | 6.4 | 0.00 | 0.00 | 0.00 | 48 | 1015.2 |
| 20260502233102 | 8 | 294 | 3.2 | 4.8 | 0.00 | 0.00 | 0.00 | 44 | 1015.3 |
| 20260502231600 | 7 | 311 | 1.6 | 6.4 | 0.00 | 0.00 | 0.00 | 50 | 1015.3 |
| 20260502230045 | 7 | 242 | 4.8 | 9.7 | 0.00 | 0.00 | 0.00 | 48 | 1015.4 |
| 20260502224546 | 7 | 239 | 3.2 | 9.7 | 0.00 | 0.00 | 0.00 | 48 | 1015.5 |
| 20260502223051 | 7 | 294 | 3.2 | 12.9 | 0.00 | 0.00 | 0.00 | 46 | 1015.4 |
| 20260502221559 | 7 | 239 | 6.4 | 17.7 | 0.00 | 0.00 | 0.00 | 48 | 1015.5 |
| 20260502220049 | 8 | 248 | 6.4 | 17.7 | 0.00 | 0.00 | 0.00 | 46 | 1015.5 |
| 20260502214550 | 8 | 278 | 1.6 | 16.1 | 0.00 | 0.00 | 0.00 | 48 | 1015.4 |
| 20260502213051 | 7 | 256 | 8.0 | 16.1 | 0.00 | 0.00 | 0.00 | 47 | 1015.4 |
| 20260502211549 | 8 | 226 | 8.0 | 16.1 | 0.00 | 0.00 | 0.00 | 47 | 1015.6 |